| time (UTC) | temp F | wind direction | speed knots | gust knots | rain 1hr in | rain 24hr in | rain mn in | humidity % | barometer mb |
| 20260502130558 | 63 | 157 | 0.9 | 2.6 | 0.00 | 0.00 | 0.00 | 67 | 1014.7 |
| 20260502130108 | 63 | 223 | 0.9 | 3.5 | 0.00 | 0.00 | 0.00 | 65 | 1014.7 |
| 20260502123558 | 63 | 77 | 1.7 | 5.2 | 0.00 | 0.00 | 0.00 | 64 | 1015.0 |
| 20260502123102 | 63 | 17 | 0.9 | 5.2 | 0.00 | 0.00 | 0.00 | 62 | 1015.0 |
| 20260502122559 | 63 | 124 | 0.9 | 2.6 | 0.00 | 0.00 | 0.00 | 65 | 1015.0 |
| 20260502122058 | 63 | 80 | 0.9 | 2.6 | 0.00 | 0.00 | 0.00 | 60 | 1015.1 |
| 20260502121558 | 63 | 0 | 0.0 | 5.2 | 0.00 | 0.00 | 0.00 | 60 | 1015.1 |
| 20260502121058 | 63 | 107 | 1.7 | 6.1 | 0.00 | 0.00 | 0.00 | 60 | 1015.3 |
| 20260502120558 | 63 | 82 | 0.9 | 6.1 | 0.00 | 0.00 | 0.00 | 62 | 1015.5 |
| 20260502120104 | 63 | 118 | 0.9 | 3.5 | 0.00 | 0.00 | 0.00 | 63 | 1015.6 |
| 20260502115557 | 63 | 0 | 0.0 | 3.5 | 0.00 | 0.00 | 0.00 | 62 | 1015.5 |
| 20260502115057 | 63 | 123 | 1.7 | 6.1 | 0.00 | 0.00 | 0.00 | 63 | 1015.6 |
| 20260502114558 | 63 | 0 | 1.7 | 6.1 | 0.00 | 0.00 | 0.00 | 66 | 1015.7 |
| 20260502114100 | 63 | 182 | 2.6 | 6.1 | 0.00 | 0.00 | 0.00 | 65 | 1015.7 |
| 20260502113558 | 63 | 179 | 2.6 | 5.2 | 0.00 | 0.00 | 0.00 | 63 | 1015.8 |
| 20260502113057 | 64 | 217 | 0.9 | 3.5 | 0.00 | 0.00 | 0.00 | 61 | 1015.6 |
| 20260502112557 | 64 | 338 | 0.9 | 3.5 | 0.00 | 0.00 | 0.00 | 60 | 1015.7 |
| 20260502112058 | 64 | 285 | 0.9 | 3.5 | 0.00 | 0.00 | 0.00 | 62 | 1015.8 |
| 20260502111558 | 64 | 123 | 0.9 | 5.2 | 0.00 | 0.00 | 0.00 | 61 | 1015.8 |
| 20260502111057 | 64 | 131 | 1.7 | 6.1 | 0.00 | 0.00 | 0.00 | 60 | 1016.0 |
| 20260502110558 | 64 | 159 | 1.7 | 6.1 | 0.00 | 0.00 | 0.00 | 61 | 1016.1 |
| 20260502105559 | 64 | 223 | 2.6 | 7.8 | 0.00 | 0.00 | 0.00 | 63 | 1016.4 |
| 20260502105058 | 64 | 157 | 2.6 | 7.8 | 0.00 | 0.00 | 0.00 | 66 | 1016.4 |
| 20260502104600 | 63 | 175 | 4.3 | 7.8 | 0.00 | 0.00 | 0.00 | 68 | 1016.5 |
| 20260502104058 | 63 | 159 | 2.6 | 7.8 | 0.00 | 0.00 | 0.00 | 66 | 1016.5 |
| 20260502103558 | 63 | 160 | 1.7 | 10.4 | 0.00 | 0.00 | 0.00 | 66 | 1016.6 |
| 20260502103105 | 63 | 185 | 2.6 | 11.3 | 0.00 | 0.00 | 0.00 | 65 | 1016.8 |
| 20260502102600 | 63 | 171 | 2.6 | 11.3 | 0.00 | 0.00 | 0.00 | 68 | 1016.9 |
| 20260502102058 | 63 | 186 | 4.3 | 8.7 | 0.00 | 0.00 | 0.00 | 68 | 1016.9 |
| 20260502101616 | 63 | 106 | 3.5 | 7.8 | 0.00 | 0.00 | 0.00 | 66 | 1017.1 |
| 20260502101057 | 63 | 0 | 2.6 | 7.8 | 0.00 | 0.00 | 0.00 | 67 | 1017.1 |
| 20260502100558 | 63 | 0 | 2.6 | 7.0 | 0.00 | 0.00 | 0.00 | 64 | 1017.1 |
| 20260502100105 | 63 | 126 | 3.5 | 7.0 | 0.00 | 0.00 | 0.00 | 67 | 1017.1 |
| 20260502091057 | 62 | 146 | 2.6 | 8.7 | 0.00 | 0.00 | 0.00 | 70 | 1017.3 |
| 20260502090559 | 61 | 175 | 1.7 | 7.0 | 0.00 | 0.00 | 0.00 | 73 | 1017.2 |
| 20260502090115 | 60 | 175 | 2.6 | 7.0 | 0.00 | 0.00 | 0.00 | 75 | 1017.2 |
| 20260502071057 | 55 | 171 | 2.6 | 6.1 | 0.00 | 0.00 | 0.00 | 82 | 1018.1 |
| 20260502070558 | 54 | 126 | 2.6 | 7.0 | 0.00 | 0.00 | 0.00 | 82 | 1018.0 |
| 20260502070111 | 54 | 134 | 2.6 | 7.0 | 0.00 | 0.00 | 0.00 | 83 | 1018.0 |
| 20260502065558 | 54 | 130 | 1.7 | 6.1 | 0.00 | 0.00 | 0.00 | 83 | 1017.9 |
| 20260502065059 | 53 | 175 | 1.7 | 5.2 | 0.00 | 0.00 | 0.00 | 83 | 1017.9 |
| 20260502064613 | 52 | 89 | 1.7 | 5.2 | 0.00 | 0.00 | 0.00 | 86 | 1017.9 |
| 20260502064058 | 52 | 144 | 2.6 | 7.0 | 0.00 | 0.00 | 0.00 | 87 | 1018.0 |
| 20260502063558 | 51 | 143 | 3.5 | 7.0 | 0.00 | 0.00 | 0.00 | 89 | 1018.1 |
| 20260502063101 | 50 | 163 | 1.7 | 6.1 | 0.00 | 0.00 | 0.00 | 90 | 1017.9 |
| 20260502062557 | 49 | 126 | 2.6 | 6.1 | 0.00 | 0.00 | 0.00 | 91 | 1018.0 |
| 20260502062058 | 49 | 153 | 1.7 | 4.3 | 0.00 | 0.00 | 0.00 | 91 | 1017.9 |
| 20260502061558 | 48 | 98 | 0.9 | 3.5 | 0.00 | 0.00 | 0.00 | 91 | 1017.9 |
| 20260502061059 | 48 | 128 | 0.0 | 3.5 | 0.00 | 0.00 | 0.00 | 91 | 1018.1 |
| 20260502060558 | 48 | 157 | 0.9 | 6.1 | 0.00 | 0.00 | 0.00 | 91 | 1018.1 |
| 20260502060058 | 48 | 158 | 0.9 | 6.1 | 0.00 | 0.00 | 0.00 | 91 | 1018.1 |
| 20260502055559 | 48 | 119 | 2.6 | 6.1 | 0.00 | 0.00 | 0.00 | 91 | 1018.1 |
| 20260502055059 | 48 | 172 | 1.7 | 5.2 | 0.00 | 0.00 | 0.00 | 91 | 1018.2 |
| 20260502054603 | 48 | 150 | 2.6 | 5.2 | 0.00 | 0.00 | 0.00 | 91 | 1018.3 |
| 20260502054101 | 48 | 150 | 1.7 | 5.2 | 0.00 | 0.00 | 0.00 | 92 | 1018.3 |
| 20260502053558 | 48 | 173 | 1.7 | 4.3 | 0.00 | 0.00 | 0.00 | 92 | 1018.3 |
| 20260502053058 | 48 | 165 | 0.9 | 3.5 | 0.00 | 0.00 | 0.00 | 91 | 1018.3 |
| 20260502052558 | 47 | 139 | 0.9 | 3.5 | 0.00 | 0.00 | 0.00 | 91 | 1018.2 |
| 20260502052102 | 47 | 150 | 1.7 | 3.5 | 0.00 | 0.00 | 0.00 | 91 | 1018.2 |
| 20260502051600 | 47 | 187 | 1.7 | 3.5 | 0.00 | 0.00 | 0.00 | 91 | 1018.2 |
| 20260502051058 | 48 | 184 | 0.9 | 3.5 | 0.00 | 0.00 | 0.00 | 92 | 1018.2 |
| 20260502050559 | 48 | 167 | 0.0 | 3.5 | 0.00 | 0.00 | 0.00 | 92 | 1018.2 |
| 20260502050059 | 47 | 217 | 0.0 | 1.7 | 0.00 | 0.00 | 0.00 | 92 | 1018.2 |
| 20260502045559 | 47 | 0 | 0.0 | 0.9 | 0.00 | 0.00 | 0.00 | 92 | 1018.1 |
| 20260502045058 | 47 | 0 | 0.0 | 0.9 | 0.00 | 0.00 | 0.00 | 92 | 1018.1 |
| 20260502044559 | 47 | 0 | 0.0 | 1.7 | 0.00 | 0.00 | 0.00 | 92 | 1018.1 |
| 20260502044057 | 47 | 0 | 0.0 | 1.7 | 0.00 | 0.00 | 0.00 | 93 | 1018.1 |
| 20260502043557 | 47 | 57 | 0.0 | 1.7 | 0.00 | 0.00 | 0.00 | 93 | 1018.1 |
| 20260502043056 | 47 | 0 | 0.0 | 3.5 | 0.00 | 0.00 | 0.00 | 93 | 1018.1 |
| 20260502042601 | 47 | 0 | 0.0 | 3.5 | 0.00 | 0.00 | 0.00 | 93 | 1018.1 |
| 20260502042058 | 47 | 150 | 0.0 | 2.6 | 0.00 | 0.00 | 0.00 | 93 | 1018.1 |
| 20260502041605 | 47 | 130 | 0.0 | 1.7 | 0.00 | 0.00 | 0.00 | 93 | 1018.1 |
| 20260502041058 | 46 | 0 | 0.0 | 0.0 | 0.00 | 0.00 | 0.00 | 93 | 1018.2 |
| 20260502040557 | 46 | 0 | 0.0 | 0.0 | 0.00 | 0.00 | 0.00 | 93 | 1018.2 |
| 20260502040058 | 46 | 0 | 0.0 | 0.0 | 0.00 | 0.00 | 0.00 | 93 | 1018.3 |
| 20260502035557 | 46 | 0 | 0.0 | 0.0 | 0.00 | 0.00 | 0.00 | 93 | 1018.3 |
| 20260502035057 | 45 | 0 | 0.0 | 0.0 | 0.00 | 0.00 | 0.00 | 92 | 1018.3 |
| 20260502034558 | 45 | 0 | 0.0 | 0.0 | 0.00 | 0.00 | 0.00 | 92 | 1018.4 |
| 20260502034057 | 45 | 0 | 0.0 | 2.6 | 0.00 | 0.00 | 0.00 | 92 | 1018.4 |
| 20260502033557 | 45 | 0 | 0.0 | 2.6 | 0.00 | 0.00 | 0.00 | 91 | 1018.5 |
| 20260502033117 | 45 | 0 | 0.0 | 2.6 | 0.00 | 0.00 | 0.00 | 92 | 1018.4 |
| 20260502032557 | 45 | 0 | 0.0 | 0.0 | 0.00 | 0.00 | 0.00 | 92 | 1018.5 |
| 20260502032102 | 45 | 0 | 0.0 | 0.0 | 0.00 | 0.00 | 0.00 | 91 | 1018.7 |
| 20260502031607 | 45 | 0 | 0.0 | 0.0 | 0.00 | 0.00 | 0.00 | 90 | 1018.8 |
| 20260502031058 | 45 | 0 | 0.0 | 0.0 | 0.00 | 0.00 | 0.00 | 90 | 1018.7 |
| 20260502030558 | 46 | 0 | 0.0 | 0.0 | 0.00 | 0.00 | 0.00 | 91 | 1018.7 |
| 20260502030103 | 46 | 0 | 0.0 | 0.0 | 0.00 | 0.00 | 0.00 | 90 | 1018.8 |
| 20260502025557 | 46 | 0 | 0.0 | 0.0 | 0.00 | 0.00 | 0.00 | 90 | 1018.7 |
| 20260502025100 | 46 | 0 | 0.0 | 0.0 | 0.00 | 0.00 | 0.00 | 90 | 1018.8 |
| 20260502024610 | 47 | 0 | 0.0 | 0.0 | 0.00 | 0.00 | 0.00 | 89 | 1019.0 |
| 20260502024101 | 47 | 0 | 0.0 | 0.0 | 0.00 | 0.00 | 0.00 | 90 | 1018.9 |
| 20260502023557 | 47 | 0 | 0.0 | 0.0 | 0.00 | 0.00 | 0.00 | 90 | 1019.0 |
| 20260502023141 | 48 | 0 | 0.0 | 0.0 | 0.00 | 0.00 | 0.00 | 91 | 1019.0 |
| 20260502022604 | 48 | 0 | 0.0 | 0.0 | 0.00 | 0.00 | 0.00 | 93 | 1019.0 |
| 20260502022103 | 48 | 0 | 0.0 | 0.0 | 0.00 | 0.00 | 0.00 | 93 | 1019.0 |
| 20260502021601 | 47 | 0 | 0.0 | 0.0 | 0.00 | 0.00 | 0.00 | 93 | 1019.2 |
| 20260502021102 | 47 | 0 | 0.0 | 0.0 | 0.00 | 0.00 | 0.00 | 93 | 1019.1 |
| 20260502020559 | 47 | 0 | 0.0 | 0.0 | 0.00 | 0.00 | 0.00 | 93 | 1019.2 |
| 20260502015558 | 46 | 0 | 0.0 | 0.0 | 0.00 | 0.00 | 0.00 | 92 | 1019.3 |
| 20260502015057 | 46 | 0 | 0.0 | 0.0 | 0.00 | 0.00 | 0.00 | 92 | 1019.3 |
| 20260502014558 | 46 | 0 | 0.0 | 0.0 | 0.00 | 0.00 | 0.00 | 91 | 1019.2 |
| 20260502014100 | 45 | 0 | 0.0 | 0.0 | 0.00 | 0.00 | 0.00 | 91 | 1019.3 |
| 20260502013600 | 45 | 0 | 0.0 | 0.0 | 0.00 | 0.00 | 0.00 | 91 | 1019.5 |
| 20260502013103 | 45 | 0 | 0.0 | 0.0 | 0.00 | 0.00 | 0.00 | 91 | 1019.4 |
| 20260502012600 | 45 | 0 | 0.0 | 0.0 | 0.00 | 0.00 | 0.00 | 90 | 1019.4 |
| 20260502012100 | 45 | 0 | 0.0 | 0.0 | 0.00 | 0.00 | 0.00 | 89 | 1019.4 |
| 20260502011559 | 45 | 0 | 0.0 | 0.0 | 0.00 | 0.00 | 0.00 | 89 | 1019.5 |
| 20260502011058 | 46 | 0 | 0.0 | 0.0 | 0.00 | 0.00 | 0.00 | 88 | 1019.6 |
| 20260502010557 | 46 | 0 | 0.0 | 0.0 | 0.00 | 0.00 | 0.00 | 88 | 1019.5 |
| 20260502010100 | 47 | 0 | 0.0 | 0.0 | 0.00 | 0.00 | 0.00 | 88 | 1019.6 |
| 20260502005602 | 47 | 0 | 0.0 | 1.7 | 0.00 | 0.00 | 0.00 | 89 | 1019.5 |
| 20260502005057 | 47 | 0 | 0.0 | 1.7 | 0.00 | 0.00 | 0.00 | 90 | 1019.6 |
| 20260502004600 | 47 | 19 | 0.9 | 1.7 | 0.00 | 0.00 | 0.00 | 88 | 1019.7 |
| 20260502004058 | 47 | 0 | 0.0 | 0.0 | 0.00 | 0.00 | 0.00 | 86 | 1019.8 |
| 20260502003600 | 48 | 0 | 0.0 | 0.0 | 0.00 | 0.00 | 0.00 | 85 | 1019.8 |
| 20260502003057 | 48 | 0 | 0.0 | 0.0 | 0.00 | 0.00 | 0.00 | 84 | 1019.8 |
| 20260502002600 | 49 | 0 | 0.0 | 0.9 | 0.00 | 0.00 | 0.00 | 83 | 1019.9 |
| 20260502002057 | 50 | 0 | 0.0 | 0.9 | 0.00 | 0.00 | 0.00 | 84 | 1019.9 |
| 20260502001636 | 50 | 0 | 0.0 | 1.7 | 0.00 | 0.00 | 0.00 | 85 | 1019.9 |
| 20260502001057 | 51 | 0 | 0.0 | 1.7 | 0.00 | 0.00 | 0.00 | 87 | 1019.8 |
| 20260502000603 | 51 | 0 | 0.0 | 1.7 | 0.00 | 0.00 | 0.00 | 87 | 1019.8 |
| 20260502000123 | 51 | 0 | 0.0 | 1.7 | 0.00 | 0.00 | 0.00 | 87 | 1020.0 |
| 20260501235604 | 51 | 19 | 0.9 | 1.7 | 0.00 | 0.00 | 0.00 | 87 | 1019.9 |
| 20260501235059 | 51 | 338 | 0.0 | 0.9 | 0.00 | 0.00 | 0.00 | 86 | 1020.0 |
| 20260501234600 | 51 | 0 | 0.0 | 1.7 | 0.00 | 0.00 | 0.00 | 85 | 1020.0 |
| 20260501234058 | 51 | 0 | 0.0 | 1.7 | 0.00 | 0.00 | 0.00 | 84 | 1020.1 |
| 20260501233558 | 52 | 338 | 0.9 | 1.7 | 0.00 | 0.00 | 0.00 | 85 | 1020.0 |
| 20260501233059 | 52 | 338 | 0.0 | 2.6 | 0.00 | 0.00 | 0.00 | 85 | 1020.1 |
| 20260501232557 | 52 | 331 | 0.0 | 2.6 | 0.00 | 0.00 | 0.00 | 84 | 1020.2 |
| 20260501232057 | 52 | 0 | 0.0 | 2.6 | 0.00 | 0.00 | 0.00 | 85 | 1020.2 |
| 20260501231607 | 52 | 0 | 0.9 | 2.6 | 0.00 | 0.00 | 0.00 | 85 | 1020.3 |
| 20260501231058 | 52 | 343 | 0.9 | 2.6 | 0.00 | 0.00 | 0.00 | 86 | 1020.4 |
| 20260501230600 | 52 | 314 | 0.9 | 2.6 | 0.00 | 0.00 | 0.00 | 85 | 1020.4 |
| 20260501230059 | 52 | 317 | 0.9 | 2.6 | 0.00 | 0.00 | 0.00 | 85 | 1020.5 |
| 20260501225600 | 52 | 319 | 0.9 | 2.6 | 0.00 | 0.00 | 0.00 | 85 | 1020.5 |
| 20260501225058 | 52 | 344 | 0.9 | 2.6 | 0.00 | 0.00 | 0.00 | 85 | 1020.5 |
| 20260501224614 | 52 | 327 | 0.9 | 2.6 | 0.00 | 0.00 | 0.00 | 85 | 1020.5 |
| 20260501224057 | 52 | 314 | 0.9 | 2.6 | 0.00 | 0.00 | 0.00 | 86 | 1020.5 |
| 20260501223557 | 52 | 326 | 0.9 | 2.6 | 0.00 | 0.00 | 0.00 | 87 | 1020.5 |
| 20260501223058 | 52 | 317 | 0.9 | 1.7 | 0.00 | 0.00 | 0.00 | 87 | 1020.6 |
| 20260501222602 | 51 | 317 | 0.0 | 1.7 | 0.00 | 0.00 | 0.00 | 87 | 1020.6 |
| 20260501222059 | 51 | 317 | 0.0 | 0.9 | 0.00 | 0.00 | 0.00 | 87 | 1020.6 |
| 20260501221556 | 52 | 0 | 0.0 | 0.9 | 0.00 | 0.00 | 0.00 | 86 | 1020.7 |
| 20260501221058 | 52 | 0 | 0.0 | 0.9 | 0.00 | 0.00 | 0.00 | 86 | 1020.6 |
| 20260501220558 | 52 | 0 | 0.0 | 0.9 | 0.00 | 0.00 | 0.00 | 86 | 1020.5 |
| 20260501220100 | 52 | 0 | 0.0 | 0.9 | 0.00 | 0.00 | 0.00 | 86 | 1020.5 |
| 20260501215600 | 52 | 0 | 0.0 | 0.9 | 0.00 | 0.00 | 0.00 | 86 | 1020.5 |
| 20260501215101 | 52 | 0 | 0.0 | 0.9 | 0.00 | 0.00 | 0.00 | 85 | 1020.5 |
| 20260501214559 | 52 | 0 | 0.0 | 0.9 | 0.00 | 0.00 | 0.00 | 87 | 1020.4 |
| 20260501214057 | 51 | 0 | 0.0 | 0.9 | 0.00 | 0.00 | 0.00 | 87 | 1020.5 |
| 20260501213557 | 51 | 0 | 0.0 | 0.9 | 0.00 | 0.00 | 0.00 | 87 | 1020.5 |
| 20260501213056 | 51 | 0 | 0.0 | 0.9 | 0.00 | 0.00 | 0.00 | 85 | 1020.5 |
| 20260501212601 | 52 | 0 | 0.0 | 1.7 | 0.00 | 0.00 | 0.00 | 85 | 1020.5 |
| 20260501212057 | 52 | 317 | 0.0 | 1.7 | 0.00 | 0.00 | 0.00 | 87 | 1020.5 |
| 20260501211557 | 51 | 317 | 0.0 | 0.9 | 0.00 | 0.00 | 0.00 | 86 | 1020.5 |
| 20260501211058 | 51 | 0 | 0.0 | 1.7 | 0.00 | 0.00 | 0.00 | 86 | 1020.6 |
| 20260501210601 | 51 | 0 | 0.0 | 1.7 | 0.00 | 0.00 | 0.00 | 86 | 1020.5 |
| 20260501210059 | 51 | 0 | 0.0 | 1.7 | 0.00 | 0.00 | 0.00 | 85 | 1020.4 |
| 20260501205600 | 51 | 0 | 0.0 | 1.7 | 0.00 | 0.00 | 0.00 | 83 | 1020.5 |
| 20260501205057 | 52 | 0 | 0.0 | 1.7 | 0.00 | 0.00 | 0.00 | 85 | 1020.3 |
| 20260501204605 | 52 | 338 | 0.0 | 1.7 | 0.00 | 0.00 | 0.00 | 85 | 1020.3 |
| 20260501204058 | 52 | 284 | 0.0 | 0.9 | 0.00 | 0.00 | 0.00 | 85 | 1020.3 |
| 20260501203558 | 52 | 0 | 0.0 | 0.9 | 0.00 | 0.00 | 0.00 | 85 | 1020.4 |
| 20260501203106 | 52 | 0 | 0.0 | 0.0 | 0.00 | 0.00 | 0.00 | 85 | 1020.4 |
| 20260501202559 | 52 | 0 | 0.0 | 0.9 | 0.00 | 0.00 | 0.00 | 84 | 1020.5 |
| 20260501202101 | 52 | 0 | 0.0 | 0.9 | 0.00 | 0.00 | 0.00 | 84 | 1020.5 |
| 20260501201600 | 52 | 0 | 0.0 | 0.9 | 0.00 | 0.00 | 0.00 | 84 | 1020.5 |
| 20260501201059 | 52 | 0 | 0.0 | 0.0 | 0.00 | 0.00 | 0.00 | 84 | 1020.5 |
| 20260501200558 | 52 | 0 | 0.0 | 0.0 | 0.00 | 0.00 | 0.00 | 82 | 1020.5 |
| 20260501195558 | 52 | 0 | 0.0 | 0.9 | 0.00 | 0.00 | 0.00 | 83 | 1020.4 |
| 20260501195058 | 52 | 0 | 0.0 | 0.9 | 0.00 | 0.00 | 0.00 | 83 | 1020.3 |
| 20260501194603 | 52 | 0 | 0.0 | 1.7 | 0.00 | 0.00 | 0.00 | 82 | 1020.3 |
| 20260501194058 | 52 | 0 | 0.0 | 3.5 | 0.00 | 0.00 | 0.00 | 82 | 1020.3 |
| 20260501193603 | 53 | 0 | 0.0 | 3.5 | 0.00 | 0.00 | 0.00 | 81 | 1020.3 |
| 20260501193100 | 53 | 268 | 0.0 | 4.3 | 0.00 | 0.00 | 0.00 | 81 | 1020.3 |
| 20260501192558 | 53 | 0 | 0.9 | 4.3 | 0.00 | 0.00 | 0.00 | 81 | 1020.2 |
| 20260501192101 | 53 | 282 | 0.9 | 6.1 | 0.00 | 0.00 | 0.00 | 81 | 1020.2 |
| 20260501191605 | 54 | 281 | 1.7 | 6.1 | 0.00 | 0.00 | 0.00 | 80 | 1020.3 |
| 20260501191058 | 54 | 267 | 0.9 | 6.1 | 0.00 | 0.00 | 0.00 | 80 | 1020.2 |
| 20260501190557 | 54 | 279 | 1.7 | 5.2 | 0.00 | 0.00 | 0.00 | 80 | 1020.2 |
| 20260501185557 | 54 | 252 | 1.7 | 3.5 | 0.00 | 0.00 | 0.00 | 81 | 1020.1 |
| 20260501185057 | 54 | 284 | 0.9 | 5.2 | 0.00 | 0.00 | 0.00 | 80 | 1020.1 |
| 20260501184600 | 54 | 267 | 1.7 | 5.2 | 0.00 | 0.00 | 0.00 | 79 | 1020.1 |
| 20260501184058 | 55 | 246 | 1.7 | 7.8 | 0.00 | 0.00 | 0.00 | 79 | 1020.0 |
| 20260501183601 | 55 | 245 | 2.6 | 7.8 | 0.00 | 0.00 | 0.00 | 78 | 1020.0 |
| 20260501183104 | 55 | 278 | 0.9 | 5.2 | 0.00 | 0.00 | 0.00 | 79 | 1020.0 |
| 20260501182601 | 55 | 234 | 1.7 | 5.2 | 0.00 | 0.00 | 0.00 | 79 | 1019.9 |
| 20260501182100 | 55 | 251 | 2.6 | 5.2 | 0.00 | 0.00 | 0.00 | 78 | 1019.9 |
| 20260501181612 | 55 | 249 | 1.7 | 5.2 | 0.00 | 0.00 | 0.00 | 78 | 1020.1 |
| 20260501181100 | 55 | 247 | 1.7 | 5.2 | 0.00 | 0.00 | 0.00 | 78 | 1020.1 |
| 20260501180557 | 55 | 258 | 2.6 | 6.1 | 0.00 | 0.00 | 0.00 | 77 | 1020.1 |
| 20260501180111 | 56 | 240 | 1.7 | 6.1 | 0.00 | 0.00 | 0.00 | 76 | 1020.1 |
| 20260501175558 | 56 | 242 | 1.7 | 5.2 | 0.00 | 0.00 | 0.00 | 75 | 1020.1 |
| 20260501175100 | 57 | 285 | 1.7 | 5.2 | 0.00 | 0.00 | 0.00 | 74 | 1020.1 |
| 20260501174559 | 58 | 276 | 2.6 | 6.1 | 0.00 | 0.00 | 0.00 | 73 | 1020.1 |
| 20260501174057 | 58 | 250 | 1.7 | 6.1 | 0.00 | 0.00 | 0.00 | 72 | 1020.1 |
| 20260501173557 | 58 | 244 | 1.7 | 7.0 | 0.00 | 0.00 | 0.00 | 73 | 1020.1 |
| 20260501173125 | 58 | 300 | 1.7 | 7.0 | 0.00 | 0.00 | 0.00 | 73 | 1020.0 |
| 20260501172558 | 58 | 305 | 2.6 | 7.8 | 0.00 | 0.00 | 0.00 | 74 | 1020.0 |
| 20260501172057 | 58 | 292 | 3.5 | 7.8 | 0.00 | 0.00 | 0.00 | 73 | 1020.0 |
| 20260501171558 | 58 | 285 | 2.6 | 7.8 | 0.00 | 0.00 | 0.00 | 74 | 1020.1 |
| 20260501171058 | 58 | 274 | 4.3 | 7.8 | 0.00 | 0.00 | 0.00 | 72 | 1020.1 |
| 20260501170558 | 59 | 11 | 3.5 | 8.7 | 0.00 | 0.00 | 0.00 | 71 | 1020.1 |
| 20260501170111 | 59 | 327 | 5.2 | 8.7 | 0.00 | 0.00 | 0.00 | 71 | 1020.0 |
| 20260501165600 | 60 | 309 | 6.1 | 8.7 | 0.00 | 0.00 | 0.00 | 69 | 1020.0 |
| 20260501165058 | 60 | 294 | 6.1 | 8.7 | 0.00 | 0.00 | 0.00 | 71 | 1020.1 |
| 20260501164634 | 60 | 312 | 5.2 | 8.7 | 0.00 | 0.00 | 0.00 | 70 | 1020.0 |
| 20260501164057 | 61 | 319 | 4.3 | 8.7 | 0.00 | 0.00 | 0.00 | 72 | 1020.0 |
| 20260501163600 | 61 | 309 | 4.3 | 9.6 | 0.00 | 0.00 | 0.00 | 72 | 1020.0 |
| 20260501163058 | 61 | 308 | 6.1 | 9.6 | 0.00 | 0.00 | 0.00 | 73 | 1020.1 |
| 20260501162559 | 60 | 318 | 4.3 | 9.6 | 0.00 | 0.00 | 0.00 | 74 | 1020.2 |
| 20260501162058 | 60 | 302 | 7.0 | 11.3 | 0.00 | 0.00 | 0.00 | 72 | 1020.1 |
| 20260501161601 | 61 | 279 | 6.1 | 11.3 | 0.00 | 0.00 | 0.00 | 73 | 1020.2 |
| 20260501161057 | 61 | 300 | 6.1 | 11.3 | 0.00 | 0.00 | 0.00 | 73 | 1020.3 |
| 20260501160558 | 61 | 320 | 6.1 | 10.4 | 0.00 | 0.00 | 0.00 | 73 | 1020.2 |
| 20260501160059 | 61 | 322 | 6.1 | 10.4 | 0.00 | 0.00 | 0.00 | 71 | 1020.2 |
| 20260501155557 | 61 | 312 | 5.2 | 10.4 | 0.00 | 0.00 | 0.00 | 72 | 1020.1 |
| 20260501155058 | 61 | 308 | 6.1 | 11.3 | 0.00 | 0.00 | 0.00 | 71 | 1020.4 |
| 20260501154606 | 61 | 298 | 7.8 | 11.3 | 0.00 | 0.00 | 0.00 | 72 | 1020.3 |
| 20260501154101 | 61 | 300 | 6.1 | 11.3 | 0.00 | 0.00 | 0.00 | 73 | 1020.4 |
| 20260501153604 | 61 | 303 | 6.1 | 12.2 | 0.00 | 0.00 | 0.00 | 73 | 1020.4 |
| 20260501153104 | 60 | 289 | 7.0 | 12.2 | 0.00 | 0.00 | 0.00 | 74 | 1020.5 |
| 20260501152557 | 60 | 288 | 6.1 | 11.3 | 0.00 | 0.00 | 0.00 | 74 | 1020.6 |
| 20260501152100 | 60 | 288 | 5.2 | 11.3 | 0.00 | 0.00 | 0.00 | 75 | 1020.6 |
| 20260501151606 | 59 | 320 | 7.0 | 11.3 | 0.00 | 0.00 | 0.00 | 73 | 1020.6 |
| 20260501151057 | 59 | 294 | 7.0 | 12.2 | 0.00 | 0.00 | 0.00 | 75 | 1020.7 |
| 20260501150602 | 58 | 300 | 6.1 | 12.2 | 0.00 | 0.00 | 0.00 | 77 | 1020.7 |
| 20260501150057 | 58 | 294 | 7.8 | 11.3 | 0.00 | 0.00 | 0.00 | 76 | 1020.6 |
| 20260501145602 | 58 | 306 | 4.3 | 10.4 | 0.00 | 0.00 | 0.00 | 78 | 1020.7 |